Location: Palombina Vecchia
(43.6167°N, 13.4333°E)
Time: 07:33:09
(UTC+00:00)

Daily predictions for brighter satellites

Satellite Brightness Start Highest point End
(mag) Time Altitude Azimuth Time Altitude Azimuth Time Altitude Azimuth
Meteor 2-1 Rocket 4.2 16:31:06 10° N 16:36:38 73° E 16:42:12 10° SSE
Cosmos 1602 Rocket 4.0 16:35:43 10° SSW 16:40:04 66° W 16:44:25 10° N
ISS -3.7 16:37:30 10° WSW 16:40:53 84° NW 16:44:17 10° ENE
USA 234 3.3 16:35:16 10° ESE 16:41:47 75° NE 16:48:19 10° NW
Cosmos 2218 Rocket 4.5 16:39:38 10° SSE 16:45:26 39° E 16:51:18 10° NNE
SL-8 R/B 3.7 16:41:59 10° WSW 16:46:49 84° SSE 16:51:36 10° ENE
Cosmos 1300 4.1 16:44:07 10° NNW 16:47:46 43° W 16:51:23 10° SSW
Cosmos 2237 Rocket 2.4 16:46:12 10° NNW 16:51:50 77° WSW 16:57:26 10° SSE
Cosmos 1939 Rocket 4.1 16:50:29 10° ESE 16:53:22 20° ENE 16:56:17 10° NNE
Cosmos 1953 Rocket 4.0 16:49:11 10° SSE 16:53:25 43° E 16:57:41 10° NNE
ATLAS 5 CENTAUR R/B 4.2 16:52:10 10° NW 16:53:26 11° NNW 16:54:44 10° N
CSL-04 Rocket 4.3 16:48:44 10° SE 16:53:35 33° ENE 16:58:31 10° N
COSMO-SKYMED 1 2.8 16:52:31 10° NNE 16:56:44 47° E 17:00:55 10° S
Cosmos 1758 Rocket 3.5 16:53:27 10° S 16:57:45 83° E 17:02:05 10° N
Cosmos 1455 2.4 16:57:37 10° N 17:01:19 47° ENE 17:04:58 10° SSE
ADEOS Rocket 4.3 16:58:10 10° NE 17:03:46 26° E 17:09:43 10° SSE
CZ-2D R/B 4.2 17:03:39 10° SE 17:06:52 26° ENE 17:10:07 10° NNE
ERBS 4.2 17:08:19 10° W 17:11:02 23° NNW 17:13:45 10° NNE
H-2A ROCKET BODY 4.2 17:01:48 10° WSW 17:11:07 22° SSW 17:14:55 10° SSE
Cosmos 2366 rocket 4.0 17:09:02 10° S 17:15:08 62° E 17:21:20 10° NNE
SL-16 R/B 2.2 17:10:47 10° NNW 17:16:27 66° ENE 17:22:04 10° SE
H-2A R/B 3.8 17:18:08 13° NE 17:18:08 13° NE 17:19:30 10° NNE
Atlas Centaur 2 3.9 17:14:28 10° SSW 17:17:05 15° SSE 17:19:58 10° SE
Cosmos 2251 Rocket 3.6 17:12:14 10° NNW 17:17:27 54° ENE 17:22:40 10° SE
Cosmos 1825 Rocket 4.0 17:16:44 10° SSW 17:21:02 63° W 17:25:21 10° N
Cosmos 44 3.3 17:16:52 10° SW 17:21:28 72° NW 17:25:35 12° NNE
Cosmos 2219 4.4 17:17:50 10° SW 17:23:06 40° WNW 17:28:25 10° NNE
Cosmos 2082 3.6 17:17:34 10° SSW 17:23:11 84° ESE 17:28:51 10° NNE
BREEZE-M DEB (TANK) 2.2 17:21:09 10° WSW 17:23:26 63° NNW 17:24:29 29° NE
Shenzhou-11 Module 1.7 17:24:29 10° W 17:27:10 73° S 17:27:56 41° ESE
Meteor 1-11 4.3 17:22:08 10° S 17:27:33 52° E 17:32:58 10° NNE
Cosmos 2297 Rocket 3.1 17:24:43 10° SW 17:30:12 50° WNW 17:35:43 10° NNE
USA 116 3.2 17:28:30 22° NNE 17:30:16 51° E 17:33:17 10° S
Okean-O 3.7 17:26:02 10° S 17:30:19 49° W 17:34:38 10° NNW
CZ-4 R/B 1.4 17:26:40 10° SSE 17:30:44 90° ENE 17:34:54 10° NNW
Meteor 2-10 Rocket 3.6 17:26:15 10° NNW 17:31:32 82° W 17:36:36 10° S
Envisat 4.3 17:29:15 10° S 17:34:02 42° W 17:38:53 10° NNW
ATLAS CENTAUR R/B 1.4 17:30:30 10° NNW 17:34:25 49° NE 17:36:00 29° ESE
Cosmos 2221 3.0 17:35:38 10° N 17:39:34 35° ENE 17:41:13 25° ESE
Cosmos 2263 Rocket 3.3 17:35:42 10° SSE 17:39:39 23° ESE 17:39:39 23° ESE
Cosmos 2227 Rocket 3.3 17:37:55 10° SW 17:43:18 43° WNW 17:48:41 10° NNE
Cosmos 1328 4.3 17:39:25 10° SSW 17:43:24 63° W 17:47:23 10° N
NOAA 11 4.1 17:38:43 10° SSE 17:44:13 84° ENE 17:49:44 10° NNW
SKYMED 2 4.4 17:40:32 10° N 17:44:46 52° WNW 17:48:58 10° SSW
Cosmos 1727 Rocket 3.9 17:38:46 10° N 17:44:58 76° E 17:51:08 10° SSE
Cosmos-2242 4.5 17:42:07 10° NNW 17:46:08 39° W 17:50:06 10° SSW
DELTA 2 R/B (1) 4.1 17:41:09 10° W 17:46:34 52° S 17:49:52 23° ESE
USA 267 4.2 17:45:42 16° NE 17:50:25 38° NNW 17:56:19 10° W
Cosmos 407 Rocket 4.3 17:52:04 10° N 17:56:11 32° NE 17:56:11 32° NE
Cosmos 1356 Rocket 3.4 17:54:04 10° NNW 17:58:08 79° W 18:02:14 10° S
Cosmos 44 Rocket 3.4 17:54:30 10° SSW 17:59:09 50° ESE 17:59:46 47° E
YAOGAN 1 3.2 17:55:18 10° S 17:59:32 57° W 18:03:50 10° NNW
Cosmos 1943 3.8 17:55:43 10° N 18:00:45 35° NE 18:00:45 35° NE
IRS-1A Rocket 4.3 17:59:37 10° SSE 18:05:15 58° ENE 18:10:47 10° N
NOSS 3-2 (A) 4.2 18:02:57 10° S 18:06:49 29° SE 18:06:49 29° SE
MOS 1 4.4 18:09:12 42° ESE 18:10:31 50° ENE 18:16:00 10° N
Ariane Rocket 2.8 18:12:14 10° SSE 18:17:17 77° ENE 18:22:23 10° N
ISS -1.8 18:15:12 10° WNW 18:17:29 23° NNW 18:17:29 23° NNW
Cosmos 1821 Rocket 3.9 18:16:27 10° S 18:22:49 82° E 18:29:09 10° N
SL-8 R/B 4.2 18:24:57 10° W 18:29:34 49° N 18:29:34 49° N
Cosmos 614 Rocket 4.4 18:39:58 10° NNW 18:43:53 52° NNW 18:43:53 52° NNW
USA 238 DEB 3.6 18:40:13 10° SSW 18:46:23 66° SE 18:46:23 66° SE
USA 238 3.6 18:40:21 10° SSW 18:46:27 65° SSE 18:46:27 65° SSE
ADEOS Rocket 3.7 18:42:55 10° N 18:49:34 64° WNW 18:56:51 10° SSW
Cosmos 2123 Rocket 4.1 18:43:41 10° N 18:49:00 64° NNE 18:49:00 64° NNE
H-2A R/B 3.7 18:58:44 25° NNW 18:58:44 25° NNW 19:00:48 10° NNW
Cosmos 1934 Rocket 4.3 18:51:58 10° S 18:56:25 52° SSW 18:56:25 52° SSW
Atlas Centaur 2 4.1 19:01:29 10° SW 19:03:39 17° SSW 19:03:39 17° SSW
ATLAS CENTAUR R/B 4.2 19:10:39 10° WNW 19:12:17 14° W 19:12:17 14° W
Cosmos 1603 4.5 19:07:52 10° NW 19:12:44 49° W 19:12:44 49° W
Cosmos 2263 Rocket 3.5 19:18:04 10° SW 19:21:27 35° WSW 19:21:27 35° WSW
BREEZE-M DEB (TANK) 4.3 19:15:53 10° WNW 19:36:58 80° WNW 19:36:58 80° WNW
